START_TIME,STEP,MOV.,H8,t_acc.,H43,t_acc.,M25,t_acc.,H9,t_acc.
1979-07-15 21:00:29.700 ,0,0,0.,12.0,0.,12.0,0.,12.0,0.,12.0
1979-07-15 21:00:41.700 ,0,0,0.,12.0,0.,12.0,0.,12.0,0.,12.0
1979-07-15 21:00:53.700 ,0,0,0.,12.0,0.,12.0,0.,12.0,0.,12.0
1979-07-15 21:01:05.700 ,0,0,0.,12.0,0.,12.0,0.,12.0,0.,12.0
1979-07-15 21:01:17.700 ,0,0,0.,12.0,0.,12.0,0.,12.0,0.,12.0
1979-07-15 21:01:29.700 ,0,0,0.,12.0,0.,12.0,0.,12.0,0.,12.0
1979-07-15 21:01:41.700 ,1,0,0.,12.0,0.,12.0,0.,12.0,0.,12.0
1979-07-15 21:01:53.700 ,1,0,0.,12.0,0.,12.0,0.,12.0,0.,12.0
1979-07-15 21:02:05.700 ,1,0,0.,12.0,0.,12.0,0.,12.0,0.,12.0
1979-07-15 21:02:17.700 ,1,0,0.,12.0,0.,12.0,0.,12.0,0.,12.0
1979-07-15 21:02:29.700 ,2,0,0.,12.0,0.,12.0,0.,12.0,0.,12.0
1979-07-15 21:02:41.700 ,2,0,0.,12.0,0.,12.0,0.,12.0,0.,12.0
1979-07-15 21:02:53.700 ,2,0,0.,12.0,0.,12.0,0.,12.0,0.,12.0
1979-07-15 21:03:05.700 ,2,0,0.,12.0,0.,12.0,0.,12.0,0.,12.0
1979-07-15 21:03:17.700 ,3,0,0.,12.0,0.,12.0,0.,12.0,0.,12.0
1979-07-15 21:03:29.700 ,3,0,0.,12.0,0.,12.0,0.,12.0,0.,12.0
1979-07-15 21:03:41.700 ,3,0,0.,12.0,0.,12.0,0.,12.0,0.,12.0
1979-07-15 21:03:53.700 ,3,0,0.,12.0,0.,12.0,0.,12.0,0.,12.0
1979-07-15 21:04:05.700 ,4,0,0.,12.0,0.,12.0,0.,12.0,0.,12.0
1979-07-15 21:04:17.700 ,4,0,0.,12.0,0.,12.0,0.,12.0,0.,12.0
1979-07-15 21:04:29.700 ,4,0,0.,12.0,0.,12.0,0.,12.0,0.,12.0
1979-07-15 21:04:41.700 ,4,0,0.,12.0,0.,12.0,0.,12.0,0.,12.0
1979-07-15 21:04:53.700 ,5,0,0.,12.0,0.,12.0,0.,12.0,0.,12.0
1979-07-15 21:05:05.700 ,5,0,0.,12.0,0.,12.0,0.,12.0,0.,12.0
1979-07-15 21:05:17.700 ,5,0,0.,12.0,0.,12.0,0.,12.0,0.,12.0
1979-07-15 21:05:29.700 ,5,0,0.,12.0,0.,12.0,0.,12.0,0.,12.0
1979-07-15 21:05:41.700 ,6,0,0.,12.0,0.,12.0,0.,12.0,0.,12.0
1979-07-15 21:05:53.700 ,6,0,0.,12.0,0.,12.0,0.,12.0,0.,12.0
1979-07-15 21:06:05.700 ,6,0,0.,12.0,0.,12.0,0.,12.0,0.,12.0
1979-07-15 21:06:17.700 ,6,0,0.,12.0,0.,12.0,0.,12.0,0.,12.0
1979-07-15 21:06:29.700 ,7,0,0.,12.0,0.,12.0,0.,12.0,0.,12.0
1979-07-15 21:06:41.700 ,7,0,0.,12.0,0.,12.0,0.,12.0,0.,12.0
1979-07-15 21:06:53.700 ,7,0,0.,12.0,0.,12.0,0.,12.0,0.,12.0
1979-07-15 21:07:05.700 ,7,0,0.,12.0,0.,12.0,0.,12.0,0.,12.0
1979-07-15 21:07:17.700 ,3,1,0.,12.0,0.,12.0,0.,12.0,0.,12.0
1979-07-15 21:07:29.700 ,3,1,0.,12.0,0.,12.0,0.,12.0,0.,12.0
1979-07-15 21:07:41.700 ,0,1,0.,12.0,0.,12.0,0.,12.0,0.,12.0
1979-07-15 21:07:53.700 ,0,1,0.,12.0,0.,12.0,0.,12.0,0.,12.0
1979-07-15 21:08:05.700 ,4,1,0.,12.0,0.,12.0,0.,12.0,0.,12.0
1979-07-15 21:08:17.700 ,4,1,0.,12.0,0.,12.0,0.,12.0,0.,12.0
1979-07-15 21:08:29.700 ,7,1,0.,12.0,0.,12.0,0.,12.0,0.,12.0
1979-07-15 21:08:41.700 ,7,1,0.,12.0,0.,12.0,0.,12.0,0.,12.0
1979-07-15 21:08:53.700 ,3,1,0.,12.0,0.,12.0,0.,12.0,0.,12.0
1979-07-15 21:09:05.700 ,3,1,0.,12.0,0.,12.0,0.,12.0,0.,12.0
1979-07-15 21:09:17.700 ,0,1,0.,12.0,0.,12.0,0.,12.0,0.,12.0
1979-07-15 21:09:29.700 ,0,1,0.,12.0,0.,12.0,0.,12.0,0.,12.0
1979-07-15 21:09:41.700 ,4,1,0.,12.0,0.,12.0,0.,12.0,0.,12.0
1979-07-15 21:09:53.700 ,4,1,0.,12.0,0.,12.0,0.,12.0,0.,12.0
1979-07-15 21:10:05.700 ,7,1,0.,12.0,0.,12.0,0.,12.0,0.,12.0
1979-07-15 21:10:17.700 ,7,1,0.,12.0,0.,12.0,0.,12.0,0.,12.0
1979-07-15 21:10:29.700 ,3,1,0.,12.0,0.,12.0,0.,12.0,0.,12.0
1979-07-15 21:10:41.700 ,3,1,0.,12.0,0.,12.0,0.,12.0,0.,12.0
1979-07-15 21:10:53.700 ,0,1,0.,12.0,0.,12.0,0.,12.0,0.,12.0
1979-07-15 21:11:05.700 ,0,1,0.,12.0,0.,12.0,0.,12.0,0.,12.0
1979-07-15 21:11:17.700 ,4,1,0.,12.0,0.,12.0,0.,12.0,0.,12.0
1979-07-15 21:11:29.700 ,4,1,0.,12.0,0.,12.0,0.,12.0,0.,12.0
1979-07-15 21:11:41.700 ,7,1,0.,12.0,0.,12.0,0.,12.0,0.,12.0
1979-07-15 21:11:53.700 ,7,1,0.,12.0,0.,12.0,0.,12.0,0.,12.0
1979-07-15 21:12:05.700 ,3,1,0.,12.0,0.,12.0,0.,12.0,0.,12.0
1979-07-15 21:12:17.700 ,3,1,0.,12.0,0.,12.0,0.,12.0,0.,12.0
1979-07-15 21:12:29.700 ,0,1,0.,12.0,0.,12.0,0.,12.0,0.,12.0
1979-07-15 21:12:41.700 ,0,1,0.,12.0,0.,12.0,0.,12.0,0.,12.0
1979-07-15 21:12:53.700 ,4,1,0.,12.0,0.,12.0,0.,12.0,0.,12.0
1979-07-15 21:13:05.700 ,4,1,0.,12.0,0.,12.0,0.,12.0,0.,12.0
1979-07-15 21:13:17.700 ,7,1,0.,12.0,0.,12.0,0.,12.0,0.,12.0
1979-07-15 21:13:29.700 ,7,1,0.,12.0,0.,12.0,0.,12.0,0.,12.0
1979-07-15 21:13:41.700 ,3,1,0.,12.0,0.,12.0,0.,12.0,0.,12.0
1979-07-15 21:13:53.700 ,3,1,0.,12.0,0.,12.0,0.,12.0,0.,12.0
1979-07-15 21:14:05.700 ,0,1,0.,12.0,0.,12.0,0.,12.0,0.,12.0
1979-07-15 21:14:17.700 ,0,1,0.,12.0,0.,12.0,0.,12.0,0.,12.0
1979-07-15 21:14:29.700 ,4,1,0.,12.0,0.,12.0,0.,12.0,0.,12.0
1979-07-15 21:14:41.700 ,4,1,0.,12.0,0.,12.0,0.,12.0,0.,12.0
1979-07-15 21:14:53.700 ,7,1,0.,12.0,0.,12.0,0.,12.0,0.,12.0
1979-07-15 21:15:05.700 ,7,1,0.,12.0,0.,12.0,0.,12.0,0.,12.0
1979-07-15 21:15:17.700 ,3,1,0.,12.0,0.,12.0,0.,12.0,0.,12.0
1979-07-15 21:15:29.700 ,3,1,0.,12.0,0.,12.0,0.,12.0,0.,12.0
1979-07-15 21:15:41.700 ,0,1,0.,12.0,0.,12.0,0.,12.0,0.,12.0
1979-07-15 21:15:53.700 ,0,1,0.,12.0,0.,12.0,0.,12.0,0.,12.0
1979-07-15 21:16:05.700 ,4,1,0.,12.0,0.,12.0,0.,12.0,0.,12.0
1979-07-15 21:16:17.700 ,4,1,0.,12.0,0.,12.0,0.,12.0,0.,12.0
1979-07-15 21:16:29.700 ,7,1,,0,,0,,0,,0
1979-07-15 21:16:41.700 ,7,1,0.,12.0,0.,12.0,0.,12.0,0.,12.0
1979-07-15 21:16:53.700 ,3,1,0.,12.0,0.,12.0,0.,12.0,0.,12.0
1979-07-15 21:17:05.700 ,3,1,0.,12.0,0.,12.0,0.,12.0,0.,12.0
1979-07-15 21:17:17.700 ,0,1,0.,12.0,0.,12.0,0.,12.0,0.,12.0
1979-07-15 21:17:29.700 ,0,1,0.,12.0,0.,12.0,0.,12.0,0.,12.0
1979-07-15 21:17:41.700 ,0,0,0.,12.0,0.,12.0,0.,12.0,0.,12.0
1979-07-15 21:17:53.700 ,0,0,0.,12.0,0.,12.0,0.,12.0,0.,12.0
1979-07-15 21:18:05.700 ,0,0,0.,12.0,0.,12.0,0.,12.0,0.,12.0
1979-07-15 21:18:17.700 ,0,0,0.,12.0,0.,12.0,0.,12.0,0.,12.0
1979-07-15 21:18:29.700 ,5,0,0.,12.0,0.,12.0,0.,12.0,0.,12.0
1979-07-15 21:18:41.700 ,5,0,0.,12.0,0.,12.0,0.,12.0,0.,12.0
1979-07-15 21:18:53.700 ,5,0,0.,12.0,0.,12.0,0.,12.0,0.,12.0
1979-07-15 21:19:05.700 ,5,0,0.,12.0,0.,12.0,0.,12.0,0.,12.0
1979-07-15 21:19:17.700 ,4,0,0.,12.0,0.,12.0,0.,12.0,0.,12.0
1979-07-15 21:19:29.700 ,4,0,0.,12.0,0.,12.0,0.,12.0,0.,12.0
1979-07-15 21:19:41.700 ,4,0,0.,12.0,0.,12.0,0.,12.0,0.,12.0
1979-07-15 21:19:53.700 ,4,0,0.,12.0,0.,12.0,0.,12.0,0.,12.0
1979-07-15 21:20:05.700 ,3,0,0.,12.0,0.,12.0,0.,12.0,0.,12.0
1979-07-15 21:20:17.700 ,3,0,0.,12.0,0.,12.0,0.,12.0,0.,12.0
1979-07-15 21:20:29.700 ,3,0,0.,12.0,0.,12.0,0.,12.0,0.,12.0
1979-07-15 21:20:41.700 ,3,0,0.,12.0,0.,12.0,0.,12.0,0.,12.0
1979-07-15 21:20:53.700 ,2,0,0.,12.0,0.,12.0,0.,12.0,0.,12.0
1979-07-15 21:21:05.700 ,2,0,0.,12.0,0.,12.0,0.,12.0,0.,12.0
1979-07-15 21:21:17.700 ,2,0,0.,12.0,0.,12.0,0.,12.0,0.,12.0
1979-07-15 21:21:29.700 ,2,0,0.,12.0,0.,12.0,0.,12.0,0.,12.0
1979-07-15 21:21:41.700 ,1,0,0.,12.0,0.,12.0,0.,12.0,0.,12.0
1979-07-15 21:21:53.700 ,1,0,0.,12.0,0.,12.0,0.,12.0,0.,12.0
1979-07-15 21:22:05.700 ,1,0,0.,12.0,0.,12.0,0.,12.0,0.,12.0
1979-07-15 21:22:17.700 ,1,0,0.,12.0,0.,12.0,0.,12.0,0.,12.0
1979-07-15 21:22:29.700 ,0,0,0.,12.0,0.,12.0,0.,12.0,0.,12.0
1979-07-15 21:22:41.700 ,0,0,0.,12.0,0.,12.0,0.,12.0,0.,12.0
1979-07-15 21:22:53.700 ,0,0,0.,12.0,0.,12.0,0.,12.0,0.,12.0
1979-07-15 21:23:05.700 ,0,0,0.,12.0,0.,12.0,0.,12.0,0.,12.0
1979-07-15 21:23:17.700 ,0,0,0.,12.0,0.,12.0,0.,12.0,0.,12.0
1979-07-15 21:23:29.700 ,0,0,1.,12.0,0.,12.0,0.,12.0,0.,12.0
1979-07-15 21:23:41.700 ,0,0,0.,12.0,0.,12.0,0.,12.0,0.,12.0
1979-07-15 21:23:53.700 ,0,0,0.,12.0,0.,12.0,0.,12.0,0.,12.0
1979-07-15 21:24:05.700 ,1,0,0.,12.0,0.,12.0,0.,12.0,0.,12.0
1979-07-15 21:24:17.700 ,1,0,0.,12.0,0.,12.0,0.,12.0,0.,12.0
1979-07-15 21:24:29.700 ,1,0,0.,12.0,0.,12.0,0.,12.0,0.,12.0
1979-07-15 21:24:41.700 ,1,0,0.,12.0,0.,12.0,0.,12.0,0.,12.0
1979-07-15 21:24:53.700 ,2,0,0.,12.0,0.,12.0,0.,12.0,0.,12.0
1979-07-15 21:25:05.700 ,2,0,0.,12.0,0.,12.0,0.,12.0,0.,12.0
1979-07-15 21:25:17.700 ,2,0,0.,12.0,0.,12.0,0.,12.0,0.,12.0
1979-07-15 21:25:29.700 ,2,0,0.,12.0,0.,12.0,0.,12.0,0.,12.0
1979-07-15 21:25:41.700 ,3,0,0.,12.0,0.,12.0,0.,12.0,0.,12.0
1979-07-15 21:25:53.700 ,3,0,0.,12.0,0.,12.0,0.,12.0,0.,12.0
1979-07-15 21:26:05.700 ,3,0,0.,12.0,0.,12.0,0.,12.0,0.,12.0
1979-07-15 21:26:17.700 ,3,0,0.,12.0,0.,12.0,0.,12.0,0.,12.0
1979-07-15 21:26:29.700 ,4,0,0.,12.0,0.,12.0,0.,12.0,0.,12.0
1979-07-15 21:26:41.700 ,4,0,0.,12.0,0.,12.0,0.,12.0,0.,12.0
1979-07-15 21:26:53.700 ,4,0,0.,12.0,0.,12.0,0.,12.0,0.,12.0
1979-07-15 21:27:05.700 ,4,0,0.,12.0,0.,12.0,0.,12.0,0.,12.0
1979-07-15 21:27:17.700 ,5,0,0.,12.0,0.,12.0,0.,12.0,0.,12.0
1979-07-15 21:27:29.700 ,5,0,0.,12.0,0.,12.0,0.,12.0,0.,12.0
1979-07-15 21:27:41.700 ,5,0,0.,12.0,0.,12.0,0.,12.0,0.,12.0
1979-07-15 21:27:53.700 ,5,0,0.,12.0,0.,12.0,0.,12.0,0.,12.0
1979-07-15 21:28:05.700 ,6,0,0.,12.0,0.,12.0,0.,12.0,0.,12.0
1979-07-15 21:28:17.700 ,6,0,0.,12.0,0.,12.0,0.,12.0,0.,12.0
1979-07-15 21:28:29.700 ,6,0,0.,12.0,0.,12.0,0.,12.0,0.,12.0
1979-07-15 21:28:41.700 ,6,0,0.,12.0,0.,12.0,0.,12.0,0.,12.0
1979-07-15 21:28:53.700 ,7,0,0.,12.0,0.,12.0,0.,12.0,0.,12.0
1979-07-15 21:29:05.700 ,7,0,0.,12.0,0.,12.0,0.,12.0,0.,12.0
1979-07-15 21:29:17.700 ,7,0,0.,12.0,0.,12.0,0.,12.0,0.,12.0
1979-07-15 21:29:29.700 ,7,0,0.,12.0,0.,12.0,0.,12.0,0.,12.0
1979-07-15 21:29:41.700 ,7,0,0.,12.0,0.,12.0,0.,12.0,0.,12.0
1979-07-15 21:29:53.700 ,7,0,0.,12.0,0.,12.0,0.,12.0,0.,12.0
1979-07-15 21:30:05.700 ,7,0,0.,12.0,0.,12.0,0.,12.0,0.,12.0
1979-07-15 21:30:17.700 ,7,0,0.,12.0,0.,12.0,0.,12.0,0.,12.0
1979-07-15 21:30:29.700 ,6,0,0.,12.0,0.,12.0,0.,12.0,0.,12.0
1979-07-15 21:30:41.700 ,6,0,0.,12.0,0.,12.0,0.,12.0,0.,12.0
1979-07-15 21:30:53.700 ,6,0,0.,12.0,0.,12.0,0.,12.0,0.,12.0
1979-07-15 21:31:05.700 ,6,0,0.,12.0,0.,12.0,0.,12.0,0.,12.0
1979-07-15 21:31:17.700 ,5,0,0.,12.0,0.,12.0,0.,12.0,0.,12.0
1979-07-15 21:31:29.700 ,5,0,0.,12.0,0.,12.0,0.,12.0,0.,12.0
1979-07-15 21:31:41.700 ,5,0,0.,12.0,0.,12.0,0.,12.0,0.,12.0
1979-07-15 21:31:53.700 ,5,0,0.,12.0,0.,12.0,0.,12.0,0.,12.0
1979-07-15 21:32:05.700 ,4,0,0.,12.0,0.,12.0,0.,12.0,0.,12.0
1979-07-15 21:32:17.700 ,4,0,0.,12.0,0.,12.0,0.,12.0,0.,12.0
1979-07-15 21:32:29.700 ,4,0,0.,12.0,0.,12.0,0.,12.0,0.,12.0
1979-07-15 21:32:41.700 ,4,0,0.,12.0,0.,12.0,0.,12.0,0.,12.0
1979-07-15 21:32:53.700 ,3,0,0.,12.0,0.,12.0,0.,12.0,0.,12.0
1979-07-15 21:33:05.700 ,3,0,0.,12.0,0.,12.0,0.,12.0,0.,12.0
1979-07-15 21:33:17.700 ,3,0,0.,12.0,0.,12.0,0.,12.0,0.,12.0
1979-07-15 21:33:29.700 ,3,0,0.,12.0,0.,12.0,0.,12.0,0.,12.0
1979-07-15 21:33:41.700 ,2,0,0.,12.0,0.,12.0,0.,12.0,0.,12.0
1979-07-15 21:33:53.700 ,2,0,0.,12.0,0.,12.0,0.,12.0,0.,12.0
1979-07-15 21:34:05.700 ,2,0,0.,12.0,0.,12.0,0.,12.0,0.,12.0
1979-07-15 21:34:17.700 ,2,0,0.,12.0,0.,12.0,0.,12.0,0.,12.0
1979-07-15 21:34:29.700 ,1,1,0.,12.0,0.,12.0,0.,12.0,0.,12.0
1979-07-15 21:34:41.700 ,1,1,,0,,0,,0,,0
1979-07-15 21:34:53.700 ,1,0,0.,12.0,0.,12.0,0.,12.0,0.,12.0
1979-07-15 21:35:05.700 ,1,0,0.,12.0,0.,12.0,0.,12.0,0.,12.0
1979-07-15 21:35:17.700 ,0,0,0.,12.0,0.,12.0,0.,12.0,0.,12.0
1979-07-15 21:35:29.700 ,0,0,0.,12.0,0.,12.0,0.,12.0,0.,12.0
1979-07-15 21:35:41.700 ,0,0,0.,12.0,0.,12.0,0.,12.0,0.,12.0
1979-07-15 21:35:53.700 ,0,0,0.,12.0,0.,12.0,0.,12.0,0.,12.0
1979-07-15 21:36:05.700 ,0,0,0.,12.0,0.,12.0,0.,12.0,0.,12.0
1979-07-15 21:36:17.700 ,0,0,0.,12.0,0.,12.0,0.,12.0,0.,12.0
1979-07-15 21:36:29.700 ,0,0,0.,12.0,0.,12.0,0.,12.0,0.,12.0
1979-07-15 21:36:41.700 ,0,0,0.,12.0,0.,12.0,0.,12.0,0.,12.0
1979-07-15 21:36:53.700 ,1,0,0.,12.0,0.,12.0,0.,12.0,0.,12.0
1979-07-15 21:37:05.700 ,1,0,0.,12.0,0.,12.0,0.,12.0,0.,12.0
1979-07-15 21:37:17.700 ,1,0,0.,12.0,0.,12.0,0.,12.0,0.,12.0
1979-07-15 21:37:29.700 ,1,0,0.,12.0,0.,12.0,0.,12.0,0.,12.0
1979-07-15 21:37:41.700 ,2,0,0.,12.0,0.,12.0,0.,12.0,0.,12.0
1979-07-15 21:37:53.700 ,2,0,0.,12.0,0.,12.0,0.,12.0,0.,12.0
1979-07-15 21:38:05.700 ,2,0,0.,12.0,0.,12.0,0.,12.0,0.,12.0
1979-07-15 21:38:17.700 ,2,0,0.,12.0,0.,12.0,0.,12.0,0.,12.0
1979-07-15 21:38:29.700 ,3,0,0.,12.0,0.,12.0,0.,12.0,0.,12.0
1979-07-15 21:38:41.700 ,3,0,0.,12.0,0.,12.0,0.,12.0,0.,12.0
1979-07-15 21:38:53.700 ,3,0,0.,12.0,0.,12.0,0.,12.0,0.,12.0
1979-07-15 21:39:05.700 ,3,0,0.,12.0,0.,12.0,0.,12.0,0.,12.0
1979-07-15 21:39:17.700 ,4,0,0.,12.0,0.,12.0,0.,12.0,0.,12.0
1979-07-15 21:39:29.700 ,4,0,0.,12.0,0.,12.0,0.,12.0,0.,12.0
1979-07-15 21:39:41.700 ,4,0,0.,12.0,0.,12.0,0.,12.0,0.,12.0
1979-07-15 21:39:53.700 ,4,0,0.,12.0,0.,12.0,0.,12.0,0.,12.0
1979-07-15 21:40:05.700 ,5,0,0.,12.0,0.,12.0,0.,12.0,0.,12.0
1979-07-15 21:40:17.700 ,5,0,0.,12.0,0.,12.0,0.,12.0,0.,12.0
1979-07-15 21:40:29.700 ,5,0,0.,12.0,0.,12.0,0.,12.0,0.,12.0
1979-07-15 21:40:41.700 ,5,0,0.,12.0,0.,12.0,0.,12.0,0.,12.0
1979-07-15 21:40:53.700 ,6,0,0.,12.0,0.,12.0,0.,12.0,0.,12.0
1979-07-15 21:41:05.700 ,6,0,0.,12.0,0.,12.0,0.,12.0,0.,12.0
1979-07-15 21:41:17.700 ,6,0,0.,12.0,0.,12.0,0.,12.0,0.,12.0
1979-07-15 21:41:29.700 ,6,0,0.,12.0,0.,12.0,0.,12.0,0.,12.0
1979-07-15 21:41:41.700 ,7,0,0.,12.0,0.,12.0,0.,12.0,0.,12.0
1979-07-15 21:41:53.700 ,7,0,0.,12.0,0.,12.0,0.,12.0,0.,12.0
1979-07-15 21:42:05.700 ,7,0,0.,12.0,0.,12.0,0.,12.0,0.,12.0
1979-07-15 21:42:17.700 ,7,0,0.,12.0,0.,12.0,0.,12.0,0.,12.0
1979-07-15 21:42:29.700 ,7,0,0.,12.0,0.,12.0,0.,12.0,0.,12.0
1979-07-15 21:42:41.700 ,7,0,0.,12.0,0.,12.0,0.,12.0,0.,12.0
1979-07-15 21:42:53.700 ,7,0,0.,12.0,0.,12.0,0.,12.0,0.,12.0
1979-07-15 21:43:05.700 ,7,0,0.,12.0,0.,12.0,0.,12.0,0.,12.0
1979-07-15 21:43:17.700 ,6,0,0.,12.0,0.,12.0,0.,12.0,0.,12.0
1979-07-15 21:43:29.700 ,6,0,0.,12.0,0.,12.0,0.,12.0,0.,12.0
1979-07-15 21:43:41.700 ,6,0,0.,12.0,0.,12.0,0.,12.0,0.,12.0
1979-07-15 21:43:53.700 ,6,0,0.,12.0,0.,12.0,0.,12.0,0.,12.0
1979-07-15 21:44:05.700 ,5,0,0.,12.0,0.,12.0,0.,12.0,0.,12.0
1979-07-15 21:44:17.700 ,5,0,0.,12.0,0.,12.0,0.,12.0,0.,12.0
1979-07-15 21:44:29.700 ,5,0,0.,12.0,0.,12.0,0.,12.0,0.,12.0
1979-07-15 21:44:41.700 ,5,0,0.,12.0,0.,12.0,0.,12.0,0.,12.0
1979-07-15 21:44:53.700 ,4,0,0.,12.0,0.,12.0,0.,12.0,0.,12.0
1979-07-15 21:45:05.700 ,4,0,0.,12.0,0.,12.0,0.,12.0,0.,12.0
1979-07-15 21:45:17.700 ,4,0,0.,12.0,0.,12.0,0.,12.0,0.,12.0
1979-07-15 21:45:29.700 ,4,0,0.,12.0,0.,12.0,0.,12.0,0.,12.0
1979-07-15 21:45:41.700 ,3,0,0.,12.0,0.,12.0,0.,12.0,0.,12.0
1979-07-15 21:45:53.700 ,3,0,0.,12.0,0.,12.0,0.,12.0,0.,12.0
1979-07-15 21:46:05.700 ,3,0,0.,12.0,0.,12.0,0.,12.0,0.,12.0
1979-07-15 21:46:17.700 ,3,0,0.,12.0,0.,12.0,0.,12.0,0.,12.0
1979-07-15 21:46:29.700 ,2,0,1.,12.0,0.,12.0,0.,12.0,0.,12.0
1979-07-15 21:46:41.700 ,2,0,0.,12.0,0.,12.0,0.,12.0,0.,12.0
1979-07-15 21:46:53.700 ,2,0,0.,12.0,0.,12.0,0.,12.0,0.,12.0
1979-07-15 21:47:05.700 ,2,0,0.,12.0,0.,12.0,0.,12.0,0.,12.0
1979-07-15 21:47:17.700 ,1,0,0.,12.0,0.,12.0,0.,12.0,0.,12.0
1979-07-15 21:47:29.700 ,1,0,0.,12.0,0.,12.0,0.,12.0,0.,12.0
1979-07-15 21:47:41.700 ,1,0,0.,12.0,0.,12.0,0.,12.0,0.,12.0
1979-07-15 21:47:53.700 ,1,0,0.,12.0,0.,12.0,0.,12.0,0.,12.0
1979-07-15 21:48:05.700 ,0,0,0.,12.0,0.,12.0,0.,12.0,0.,12.0
1979-07-15 21:48:17.700 ,0,0,0.,12.0,0.,12.0,0.,12.0,0.,12.0
1979-07-15 21:48:29.700 ,0,0,0.,12.0,0.,12.0,0.,12.0,0.,12.0
1979-07-15 21:48:41.700 ,0,0,0.,12.0,0.,12.0,0.,12.0,0.,12.0
1979-07-15 21:48:53.700 ,0,0,0.,12.0,0.,12.0,0.,12.0,0.,12.0
1979-07-15 21:49:05.700 ,0,0,0.,12.0,0.,12.0,0.,12.0,0.,12.0
1979-07-15 21:49:17.700 ,0,0,0.,12.0,0.,12.0,0.,12.0,0.,12.0
1979-07-15 21:49:29.700 ,0,0,0.,12.0,0.,12.0,0.,12.0,0.,12.0
1979-07-15 21:49:41.700 ,1,0,0.,12.0,0.,12.0,0.,12.0,0.,12.0
1979-07-15 21:49:53.700 ,1,0,0.,12.0,0.,12.0,0.,12.0,0.,12.0
1979-07-15 21:50:05.700 ,1,0,0.,12.0,0.,12.0,0.,12.0,0.,12.0
1979-07-15 21:50:17.700 ,1,0,0.,12.0,0.,12.0,0.,12.0,0.,12.0
1979-07-15 21:50:29.700 ,2,0,0.,12.0,0.,12.0,0.,12.0,0.,12.0
1979-07-15 21:50:41.700 ,2,0,0.,12.0,0.,12.0,0.,12.0,0.,12.0
1979-07-15 21:50:53.700 ,2,0,0.,12.0,0.,12.0,0.,12.0,0.,12.0
1979-07-15 21:51:05.700 ,2,0,0.,12.0,0.,12.0,0.,12.0,0.,12.0
1979-07-15 21:51:17.700 ,3,0,0.,12.0,0.,12.0,0.,12.0,0.,12.0
1979-07-15 21:51:29.700 ,3,0,0.,12.0,0.,12.0,0.,12.0,0.,12.0
1979-07-15 21:51:41.700 ,3,0,0.,12.0,0.,12.0,0.,12.0,0.,12.0
1979-07-15 21:51:53.700 ,3,0,0.,12.0,0.,12.0,0.,12.0,0.,12.0
1979-07-15 21:52:05.700 ,4,0,0.,12.0,0.,12.0,0.,12.0,0.,12.0
1979-07-15 21:52:17.700 ,4,0,0.,12.0,0.,12.0,0.,12.0,0.,12.0
1979-07-15 21:52:29.700 ,4,0,0.,12.0,0.,12.0,0.,12.0,0.,12.0
1979-07-15 21:52:41.700 ,4,0,0.,12.0,0.,12.0,0.,12.0,0.,12.0
1979-07-15 21:52:53.700 ,5,0,0.,12.0,0.,12.0,0.,12.0,0.,12.0
1979-07-15 21:53:05.700 ,5,0,0.,12.0,0.,12.0,0.,12.0,0.,12.0
1979-07-15 21:53:17.700 ,5,0,0.,12.0,0.,12.0,0.,12.0,0.,12.0
1979-07-15 21:53:29.700 ,5,0,0.,12.0,0.,12.0,0.,12.0,0.,12.0
1979-07-15 21:53:41.700 ,6,0,0.,12.0,0.,12.0,0.,12.0,0.,12.0
1979-07-15 21:53:53.700 ,6,0,0.,12.0,0.,12.0,0.,12.0,0.,12.0
1979-07-15 21:54:05.700 ,6,0,0.,12.0,0.,12.0,0.,12.0,0.,12.0
1979-07-15 21:54:17.700 ,6,0,0.,12.0,0.,12.0,0.,12.0,0.,12.0
1979-07-15 21:54:29.700 ,7,0,0.,12.0,0.,12.0,0.,12.0,0.,12.0
1979-07-15 21:54:41.700 ,7,0,0.,12.0,0.,12.0,0.,12.0,0.,12.0
1979-07-15 21:54:53.700 ,7,0,0.,12.0,0.,12.0,0.,12.0,0.,12.0
1979-07-15 21:55:05.700 ,7,0,0.,12.0,0.,12.0,0.,12.0,0.,12.0
1979-07-15 21:55:17.700 ,3,1,0.,12.0,0.,12.0,0.,12.0,0.,12.0
1979-07-15 21:55:29.700 ,3,1,0.,12.0,0.,12.0,0.,12.0,0.,12.0
1979-07-15 21:55:41.700 ,0,1,0.,12.0,0.,12.0,0.,12.0,0.,12.0
1979-07-15 21:55:53.700 ,0,1,0.,12.0,0.,12.0,0.,12.0,0.,12.0
1979-07-15 21:56:05.700 ,4,1,0.,12.0,0.,12.0,0.,12.0,0.,12.0
1979-07-15 21:56:17.700 ,4,1,0.,12.0,0.,12.0,0.,12.0,0.,12.0
1979-07-15 21:56:29.700 ,7,1,0.,12.0,0.,12.0,0.,12.0,0.,12.0
1979-07-15 21:56:41.700 ,7,1,0.,12.0,0.,12.0,0.,12.0,0.,12.0
1979-07-15 21:56:53.700 ,3,1,0.,12.0,0.,12.0,0.,12.0,0.,12.0
1979-07-15 21:57:05.700 ,3,1,0.,12.0,0.,12.0,0.,12.0,0.,12.0
1979-07-15 21:57:17.700 ,0,1,0.,12.0,0.,12.0,0.,12.0,0.,12.0
1979-07-15 21:57:29.700 ,0,1,0.,12.0,0.,12.0,0.,12.0,0.,12.0
1979-07-15 21:57:41.700 ,4,1,0.,12.0,0.,12.0,0.,12.0,0.,12.0
1979-07-15 21:57:53.700 ,4,1,0.,12.0,0.,12.0,0.,12.0,0.,12.0
1979-07-15 21:58:05.700 ,7,1,0.,12.0,0.,12.0,0.,12.0,0.,12.0
1979-07-15 21:58:17.700 ,7,1,0.,12.0,0.,12.0,0.,12.0,0.,12.0
1979-07-15 21:58:29.700 ,3,1,0.,12.0,0.,12.0,0.,12.0,0.,12.0
1979-07-15 21:58:41.700 ,3,1,0.,12.0,0.,12.0,0.,12.0,0.,12.0
1979-07-15 21:58:53.700 ,0,1,0.,12.0,0.,12.0,0.,12.0,0.,12.0
1979-07-15 21:59:05.700 ,0,1,0.,12.0,0.,12.0,0.,12.0,0.,12.0
1979-07-15 21:59:17.700 ,4,1,0.,12.0,0.,12.0,0.,12.0,0.,12.0
1979-07-15 21:59:29.700 ,4,1,0.,12.0,0.,12.0,0.,12.0,0.,12.0
1979-07-15 21:59:41.700 ,7,1,0.,12.0,0.,12.0,0.,12.0,0.,12.0
1979-07-15 21:59:53.700 ,7,1,0.,12.0,0.,12.0,0.,12.0,0.,12.0
1979-07-15 22:00:05.700 ,3,1,0.,12.0,0.,12.0,0.,12.0,0.,12.0
1979-07-15 22:00:17.700 ,3,1,0.,12.0,0.,12.0,0.,12.0,0.,12.0
1979-07-15 22:00:29.700 ,0,1,0.,12.0,0.,12.0,0.,12.0,0.,12.0
1979-07-15 22:00:41.700 ,0,1,0.,12.0,0.,12.0,0.,12.0,0.,12.0
1979-07-15 22:00:53.700 ,4,1,0.,12.0,0.,12.0,0.,12.0,0.,12.0
1979-07-15 22:01:05.700 ,4,1,0.,12.0,0.,12.0,0.,12.0,0.,12.0
1979-07-15 22:01:17.700 ,7,1,0.,12.0,0.,12.0,0.,12.0,0.,12.0
1979-07-15 22:01:29.700 ,7,1,0.,12.0,0.,12.0,0.,12.0,0.,12.0
1979-07-15 22:01:41.700 ,3,1,0.,12.0,0.,12.0,0.,12.0,0.,12.0
1979-07-15 22:01:53.700 ,3,1,0.,12.0,0.,12.0,0.,12.0,0.,12.0
1979-07-15 22:02:05.700 ,0,1,0.,12.0,0.,12.0,0.,12.0,0.,12.0
1979-07-15 22:02:17.700 ,0,1,0.,12.0,0.,12.0,0.,12.0,0.,12.0
1979-07-15 22:02:29.700 ,4,1,0.,12.0,0.,12.0,0.,12.0,0.,12.0
1979-07-15 22:02:41.700 ,4,1,0.,12.0,0.,12.0,0.,12.0,0.,12.0
1979-07-15 22:02:53.700 ,7,1,0.,12.0,0.,12.0,0.,12.0,0.,12.0
1979-07-15 22:03:05.700 ,7,1,0.,12.0,0.,12.0,0.,12.0,0.,12.0
1979-07-15 22:03:17.700 ,3,1,0.,12.0,0.,12.0,0.,12.0,0.,12.0
1979-07-15 22:03:29.700 ,3,1,0.,12.0,0.,12.0,0.,12.0,0.,12.0
1979-07-15 22:03:41.700 ,0,1,0.,12.0,0.,12.0,0.,12.0,0.,12.0
1979-07-15 22:03:53.700 ,0,1,0.,12.0,0.,12.0,0.,12.0,0.,12.0
1979-07-15 22:04:05.700 ,4,1,0.,12.0,0.,12.0,0.,12.0,0.,12.0
1979-07-15 22:04:17.700 ,4,1,0.,12.0,0.,12.0,0.,12.0,0.,12.0
1979-07-15 22:04:29.700 ,7,1,0.,12.0,0.,12.0,0.,12.0,0.,12.0
1979-07-15 22:04:41.700 ,7,1,0.,12.0,0.,12.0,0.,12.0,0.,12.0
1979-07-15 22:04:53.700 ,3,1,0.,12.0,0.,12.0,0.,12.0,0.,12.0
1979-07-15 22:05:05.700 ,3,1,0.,12.0,0.,12.0,0.,12.0,0.,12.0
1979-07-15 22:05:17.700 ,0,1,0.,12.0,0.,12.0,0.,12.0,0.,12.0
1979-07-15 22:05:29.700 ,0,1,0.,12.0,0.,12.0,0.,12.0,0.,12.0
1979-07-15 22:05:41.700 ,0,0,0.,12.0,0.,12.0,0.,12.0,0.,12.0
1979-07-15 22:05:53.700 ,0,0,0.,12.0,0.,12.0,0.,12.0,0.,12.0
1979-07-15 22:06:05.700 ,0,0,0.,12.0,0.,12.0,0.,12.0,0.,12.0
1979-07-15 22:06:17.700 ,0,0,0.,12.0,0.,12.0,0.,12.0,0.,12.0
1979-07-15 22:06:29.700 ,5,0,0.,12.0,0.,12.0,0.,12.0,0.,12.0
1979-07-15 22:06:41.700 ,5,0,0.,12.0,0.,12.0,0.,12.0,0.,12.0
1979-07-15 22:06:53.700 ,5,0,0.,12.0,0.,12.0,0.,12.0,0.,12.0
1979-07-15 22:07:05.700 ,5,0,0.,12.0,0.,12.0,0.,12.0,0.,12.0
1979-07-15 22:07:17.700 ,4,0,0.,12.0,0.,12.0,0.,12.0,0.,12.0
1979-07-15 22:07:29.700 ,4,0,0.,12.0,0.,12.0,0.,12.0,0.,12.0
1979-07-15 22:07:41.700 ,4,0,0.,12.0,0.,12.0,0.,12.0,0.,12.0
1979-07-15 22:07:53.700 ,4,0,0.,12.0,0.,12.0,0.,12.0,0.,12.0
1979-07-15 22:08:05.700 ,3,0,0.,12.0,0.,12.0,0.,12.0,0.,12.0
1979-07-15 22:08:17.700 ,3,0,0.,12.0,0.,12.0,0.,12.0,0.,12.0
1979-07-15 22:08:29.700 ,0,0,0.,12.0,0.,12.0,0.,12.0,0.,12.0
1979-07-15 22:08:41.700 ,0,0,,0,,0,,0,,0
1979-07-15 22:08:53.700 ,2,0,0.,12.0,0.,12.0,0.,12.0,0.,12.0
1979-07-15 22:09:05.700 ,2,0,0.,12.0,0.,12.0,0.,12.0,0.,12.0
1979-07-15 22:09:17.700 ,2,0,0.,12.0,0.,12.0,0.,12.0,0.,12.0
1979-07-15 22:09:29.700 ,2,0,0.,12.0,0.,12.0,0.,12.0,0.,12.0
1979-07-15 22:09:41.700 ,1,0,0.,12.0,0.,12.0,0.,12.0,0.,12.0
1979-07-15 22:09:53.700 ,1,0,0.,12.0,0.,12.0,0.,12.0,0.,12.0
1979-07-15 22:10:05.700 ,1,0,0.,12.0,0.,12.0,0.,12.0,0.,12.0
1979-07-15 22:10:17.700 ,1,0,0.,12.0,0.,12.0,0.,12.0,0.,12.0
1979-07-15 22:10:29.700 ,0,0,0.,12.0,0.,12.0,0.,12.0,0.,12.0
1979-07-15 22:10:41.700 ,0,0,0.,12.0,0.,12.0,0.,12.0,0.,12.0
1979-07-15 22:10:53.700 ,0,0,0.,12.0,0.,12.0,0.,12.0,0.,12.0
1979-07-15 22:11:05.700 ,0,0,0.,12.0,0.,12.0,0.,12.0,0.,12.0
1979-07-15 22:11:17.700 ,0,0,0.,12.0,0.,12.0,0.,12.0,0.,12.0
1979-07-15 22:11:29.700 ,0,0,0.,12.0,0.,12.0,0.,12.0,0.,12.0
1979-07-15 22:11:41.700 ,0,0,0.,12.0,0.,12.0,0.,12.0,0.,12.0
1979-07-15 22:11:53.700 ,0,0,0.,12.0,0.,12.0,0.,12.0,0.,12.0
1979-07-15 22:12:05.700 ,1,0,0.,12.0,0.,12.0,0.,12.0,0.,12.0
1979-07-15 22:12:17.700 ,1,0,0.,12.0,0.,12.0,0.,12.0,0.,12.0
1979-07-15 22:12:29.700 ,1,0,0.,12.0,0.,12.0,0.,12.0,0.,12.0
1979-07-15 22:12:41.700 ,1,0,0.,12.0,0.,12.0,0.,12.0,0.,12.0
1979-07-15 22:12:53.700 ,2,0,0.,12.0,0.,12.0,0.,12.0,0.,12.0
1979-07-15 22:13:05.700 ,2,0,0.,12.0,0.,12.0,0.,12.0,0.,12.0
1979-07-15 22:13:17.700 ,2,0,0.,12.0,0.,12.0,0.,12.0,0.,12.0
1979-07-15 22:13:29.700 ,2,0,0.,12.0,0.,12.0,0.,12.0,0.,12.0
1979-07-15 22:13:41.700 ,3,0,0.,12.0,0.,12.0,0.,12.0,0.,12.0
1979-07-15 22:13:53.700 ,3,0,0.,12.0,0.,12.0,0.,12.0,0.,12.0
1979-07-15 22:14:05.700 ,3,0,0.,12.0,0.,12.0,0.,12.0,0.,12.0
1979-07-15 22:14:17.700 ,3,0,0.,12.0,0.,12.0,0.,12.0,0.,12.0
1979-07-15 22:14:29.700 ,4,0,0.,12.0,0.,12.0,0.,12.0,0.,12.0
1979-07-15 22:14:41.700 ,4,0,0.,12.0,0.,12.0,0.,12.0,0.,12.0
1979-07-15 22:14:53.700 ,4,0,0.,12.0,0.,12.0,0.,12.0,0.,12.0
1979-07-15 22:15:05.700 ,4,0,0.,12.0,0.,12.0,0.,12.0,0.,12.0
1979-07-15 22:15:17.700 ,5,0,0.,12.0,0.,12.0,0.,12.0,0.,12.0
1979-07-15 22:15:29.700 ,5,0,0.,12.0,0.,12.0,0.,12.0,0.,12.0
1979-07-15 22:15:41.700 ,0,0,0.,12.0,0.,12.0,0.,12.0,0.,12.0
1979-07-15 22:15:53.700 ,0,0,,0,,0,,0,,0
1979-07-15 22:16:05.700 ,6,0,0.,12.0,0.,12.0,0.,12.0,0.,12.0
1979-07-15 22:16:17.700 ,6,0,0.,12.0,0.,12.0,0.,12.0,0.,12.0
1979-07-15 22:16:29.700 ,6,0,0.,12.0,0.,12.0,0.,12.0,0.,12.0
1979-07-15 22:16:41.700 ,6,0,0.,12.0,0.,12.0,0.,12.0,0.,12.0
1979-07-15 22:16:53.700 ,7,0,1.,12.0,0.,12.0,0.,12.0,0.,12.0
1979-07-15 22:17:05.700 ,7,0,0.,12.0,0.,12.0,0.,12.0,0.,12.0
1979-07-15 22:17:41.700 ,7,0,0.,12.0,0.,12.0,0.,12.0,0.,12.0
1979-07-15 22:17:53.700 ,7,0,0.,12.0,0.,12.0,0.,12.0,0.,12.0
1979-07-15 22:18:05.700 ,7,0,0.,12.0,0.,12.0,0.,12.0,0.,12.0